x

South Brooks (46132) Wave Buoy

7:00am - Sat 29th Aug 2015 All times are PDT. -7 hours from GMT.

  • Sig Wave height 5.6ft
  • Peak Period 6s
  • Wind
    9mph
  • Sea Temp 55°f
  • Air Temp 55°f
  • Sea Pressure 991mb
  • South Brooks
  • South Brooks

More Historic Weather Station data

Upgrade to MSW Pro to gain access to the past 30 days of data for over 8000 Wavebouys and Weather Stations around the globe.

Join Pro

Comparision Forecast

View Surf forecast
   
Sat 08/29 7:00am 5.5ft 6s 9
mph
991mb 55f 55f
6:00am 5.5ft 16s 2 4 mph 992.9mb 55f 55f
5:00am 5.5ft 16s 4
mph
995.4mb 55f 55f
4:00am 6ft 15s 13 18 mph 997mb 55f 57f
3:00am 5.5ft 15s 13 22 mph 998.5mb 55f 58f
2:00am 6ft 16s 11 13 mph 999.7mb 55f 59f
1:00am 6ft 6s 13
mph
1001.2mb 55f 59f
12:00am 6ft 6s 16 18 mph 1002.3mb 55f 59f
Fri 08/28 11:00pm 6ft 6s 18 22 mph 1003.4mb 55f 59f
10:00pm 6ft 6s 18 22 mph 1004.7mb 55f 59f
9:00pm 6ft 6s 18 22 mph 1005.6mb 55f 59f
8:00pm 6ft 14s 20 25 mph 1006.3mb 55f 59f
7:00pm 6ft 6s 20 25 mph 1006.7mb 55f 59f
6:00pm 5ft 16s 18 20 mph 1007.6mb 56f 59f
5:00pm 5ft 15s 16 18 mph 1008.4mb 56f 60f
4:00pm 5ft 15s 16
mph
1009.2mb 56f 60f
3:00pm 4.5ft 15s 13 16 mph 1009.5mb 56f 60f
2:00pm 5ft 15s 13 16 mph 1010mb 56f 60f
1:00pm 5ft 14s 13 16 mph 1010.2mb 56f 60f
12:00pm 5ft 16s 11 13 mph 1010.5mb 56f 59f
11:00am 5ft 16s 9 11 mph 1010.2mb 56f 59f
10:00am 5ft 15s 7 9 mph 1010.3mb 56f 59f
9:00am 5ft 15s 4 7 mph 1010.2mb 56f 58f
8:00am 5ft 16s 4
mph
1009.5mb 56f 58f
7:00am 6ft 15s 2 4 mph 1009.4mb 56f 58f
6:00am 5ft 16s 9 11 mph 1009.7mb 56f 57f
5:00am 5ft 15s 16 20 mph 1010mb 55f 57f
4:00am 4.5ft 14s 16 20 mph 1010.5mb 55f 57f
3:00am 4.5ft 14s 11 16 mph 1011.4mb 56f 58f
2:00am 4.5ft 15s 13 16 mph 1011.2mb 56f 58f
1:00am 4.5ft 15s 13 16 mph 1011.9mb 56f 58f
12:00am 4.5ft 15s 13 16 mph 1012.3mb 56f 58f
Thu 08/27 11:00pm 4.5ft 14s 11 13 mph 1012.8mb 56f 59f
10:00pm 4.5ft 14s 9
mph
1013.5mb 56f 58f
9:00pm 4.5ft 14s 7 9 mph 1013.9mb 56f 58f
8:00pm 5ft 14s 7
mph
1014.1mb 56f 58f
7:00pm 4.5ft 15s 7
mph
1014.5mb 56f 58f
6:00pm 4.5ft 14s 7
mph
1015.3mb 56f 58f
5:00pm 4.5ft 14s 7 9 mph 1015.9mb 56f 58f
4:00pm 4.5ft 16s 11 13 mph 1016.3mb 56f 59f
3:00pm 4.5ft 14s 9 11 mph 1016.8mb 56f 59f
2:00pm 4.5ft 15s 9 11 mph 1017.3mb 56f 59f
1:00pm 4.5ft 15s 9 11 mph 1017.6mb 56f 59f
12:00pm 4.5ft 14s 9
mph
1017.8mb 56f 58f
11:00am 4.5ft 14s 7 9 mph 1017.8mb 56f 58f
10:00am 4.5ft 14s 7 9 mph 1017.7mb 55f 58f
9:00am 4.5ft 15s 7
mph
1017.9mb 55f 57f
8:00am 4.5ft 15s 7 9 mph 1017.8mb 55f 57f
7:00am 4.5ft 15s 7
mph
1018.1mb 55f 57f
6:00am 4ft 15s 4
mph
1018mb 55f 56f
5:00am 4ft 14s 4 7 mph 1017.6mb 55f 56f
4:00am 4ft 14s 4
mph
1017.3mb 55f 56f
3:00am 4ft 15s 4 7 mph 1017.2mb 55f 56f
2:00am 3.5ft 14s 2 4 mph 1016.9mb 55f 56f
1:00am 4ft 16s 2 4 mph 1017mb 56f 55f
12:00am 3.5ft 16s 2 4 mph 1016.9mb 56f 55f
Wed 08/26 11:00pm 3.5ft 14s 4 7 mph 1016.9mb 56f 55f
10:00pm 3.5ft 16s 7
mph
1016.8mb 56f 56f
9:00pm 3.5ft 14s 4 7 mph 1017mb 56f 57f
8:00pm 3.5ft 15s 4
mph
1017mb 56f 56f
7:00pm 3.5ft 14s 7
mph
1016.8mb 56f 57f
6:00pm 4ft 14s 4
mph
1017.1mb 58f 58f
5:00pm 3.5ft 17s  -  2 mph 1017mb 57f 59f
4:00pm 3.5ft 14s 2
mph
1017.2mb 56f 57f
3:00pm 3.5ft 14s 2 4 mph 1017mb 56f 57f
2:00pm 3.5ft 16s 4
mph
1017.3mb 56f 57f
1:00pm 4ft 17s 4 7 mph 1017.3mb 56f 57f
12:00pm 4ft 14s 4
mph
1017.3mb 56f 56f
11:00am 4ft 14s 4
mph
1017.1mb 55f 56f
10:00am 4ft 15s 2 4 mph 1017mb 55f 56f
9:00am 4ft 14s 2
mph
1016.8mb 54f 55f
8:00am 4ft 14s 2 4 mph 1016.7mb 54f 55f
7:00am 4ft 10s 2 4 mph 1016.5mb 54f 56f
6:00am 4ft 9s 4
mph
1016.2mb 54f 56f
5:00am 4ft 14s 4
mph
1016.4mb 55f 56f
4:00am 4ft 10s 4
mph
1016.4mb 55f 56f
3:00am 4ft 10s 2 4 mph 1016.4mb 55f 56f
2:00am 4ft 9s 4 7 mph 1016.4mb 55f 56f
1:00am 4.5ft 6s 9
mph
1016.6mb 55f 56f
12:00am 4.5ft 6s 9
mph
1016.5mb 55f 56f
Tue 08/25 11:00pm 4.5ft 6s 7 9 mph 1016.7mb 56f 56f
10:00pm 5ft 7s 4 7 mph 1016.8mb 57f 57f
9:00pm 5ft 7s 7 9 mph 1016.9mb 55f 57f
8:00pm 5ft 7s 7 9 mph 1017mb 55f 57f
7:00pm 5ft 7s 9 11 mph 1017.3mb 55f 57f
6:00pm 5ft 5s 11 13 mph 1017.5mb 55f 58f
5:00pm 6ft 5s 13 16 mph 1017.5mb 55f 58f
4:00pm 5ft 5s 16 18 mph 1017.8mb 55f 58f